Tracking 18794 objects as of 23-September-2017
HD Live streaming from Space Station
objects crossing your sky now

ICECUBE

Track ICECUBE now!
10-day predictions
ICECUBE is classified as:


NORAD ID: 42705
Int'l Code: 1998-067LN
Perigee: 395.9 km
Apogee: 397.7 km
Inclination: 51.6 °
Period: 92.3 minutes
Semi major axis: 6767 km
RCS: Unknown
Launch date: November 20, 1998
Source: United States (US)
Launch site: TYURATAM MISSILE AND SPACE COMPLEX (TTMTR)
Uplink (MHz):
Downlink (MHz): 43*.xxx
Beacon (MHz):
Mode:
Call sign:
Status:

aabbcc
Your satellite tracking list
Your tracking list is empty





NASA's NSSDC Master Catalog

Two Line Element Set (TLE):
1 42705U 98067LN  17266.40308157  .00021475  00000-0  27318-3 0  9991
2 42705  51.6401 266.3207 0001292 325.1142  34.9766 15.59303941 20226
Source of the keplerian elements: AFSPC